Regional Weather Roundup
Issued by NWS

Home | Current Version | Previous Version | Graphics & Text | Print | Product List | Glossary On
Versions: 1 2 3 4 5 6 7 8 9 10 11 12 13 14 15 16 17 18 19 20 21 22 23 24 25 26 27 28 29 30 31 32 33 34 35 36 37 38 39 40 41 42 43 44 45 46 47 48 49 50
000
ASUS43 KOAX 222210
RWRNE

WEATHER ROUNDUP FOR NEBRASKA
NATIONAL WEATHER SERVICE OMAHA NE
500 PM CDT FRI SEP 22 2017

NOTES: SATELLITE DATA IS BEING USED TO AUGMENT CLOUD COVER ABOVE
       12000 FEET.
       "FAIR" INDICATES FEW OR NO CLOUDS BELOW 12,000 FEET WITH NO
       SIGNIFICANT WEATHER AND/OR OBSTRUCTIONS TO VISIBILITY.


NEZ001>004-019>022-054>056-222300-
NEBRASKA PANHANDLE

CITY           SKY/WX    TMP DP  RH WIND       PRES   REMARKS
SCOTTSBLUFF    SUNNY     74  40  29 N9        29.82S
ALLIANCE       SUNNY     70  43  37 NE13G20   29.83S
CHADRON        SUNNY     76  39  26 N13       29.80F
GORDON         FAIR      67  44  43 N12       29.85F
KIMBALL        SUNNY     70  44  39 NE16      29.84F
SIDNEY         CLOUDY    75  45  34 NE20      29.80F
$$

NEZ057>060-069>072-079>082-222300-
SOUTHWEST NEBRASKA

CITY           SKY/WX    TMP DP  RH WIND       PRES   REMARKS
NORTH PLATTE   CLOUDY    93  50  23 S20G32    29.69F HX  90
IMPERIAL       CLOUDY    92  30  11 SW21G31   29.70S
LEXINGTON      PTSUNNY   96  48  19 S20G41    29.71S HX  93
MCCOOK         MOSUNNY   94  51  23 S28G39    29.71R HX  91
OGALLALA       CLOUDY    82  40  22 NE7       29.74S
$$

NEZ005>010-023>029-035>040-094-222300-
NORTH CENTRAL NEBRASKA

CITY           SKY/WX    TMP DP  RH WIND       PRES   REMARKS
VALENTINE      CLOUDY    73  50  44 NW17      29.81R
AINSWORTH      PTSUNNY   74  53  47 NW10      29.78S
BROKEN BOW     CLOUDY    96  51  21 SW18G29   29.71R HX  93
O`NEILL        PTSUNNY   82  60  47 NW21G26   29.70R
ORD            MOSUNNY   94  53  25 S23G32    29.69R HX  91
THEDFORD       CLOUDY    79  52  38 N16       29.76R
$$

NEZ041-046>049-061>064-073>077-083>087-222300-
SOUTH CENTRAL NEBRASKA

CITY           SKY/WX    TMP DP  RH WIND       PRES   REMARKS
GRAND ISLAND   CLOUDY    93  58  30 S16G36    29.75S HX  92
AURORA         PTSUNNY   91  60  35 S23G31    29.77R HX  91
HASTINGS       CLOUDY    93  55  27 S17G32    29.77S HX  91
HEBRON         PTSUNNY   93  62  35 S15G22    29.80S HX  94
HOLDREGE       PTSUNNY   92  49  23 S23G31    29.74F
KEARNEY        CLOUDY    94  55  26 S25G40    29.74R HX  92
YORK           PTSUNNY   93  63  36 S23G35    29.78S HX  94
$$

NEZ011>018-030>034-042>045-222300-
NORTHEAST NEBRASKA

CITY           SKY/WX    TMP DP  RH WIND       PRES   REMARKS
NORFOLK        MOSUNNY   91  63  39 S18G30    29.72S HX  92
ALBION         SUNNY     93  64  38 S22G28    29.73S HX  94
BLAIR          SUNNY     94  66  40 S18G26    29.81S HX  96
COLUMBUS       SUNNY     93  64  38 S16G28    29.76S HX  94
FREMONT        SUNNY     94  62  34 SE14G23   29.78S HX  95
TEKAMAH        SUNNY     93  66  40 S16G30    29.77S HX  96
WAYNE          MOSUNNY   90  64  42 S20G26    29.74S HX  91
$$

NEZ050>053-065>068-078-088>093-222300-
SOUTHEAST NEBRASKA

CITY           SKY/WX    TMP DP  RH WIND       PRES   REMARKS
LINCOLN        SUNNY     95  63  34 S22G31    29.80R HX  96
OMAHA EPPLEY   MOSUNNY   93  69  45 S25G33    29.81S HX  98
BEATRICE       SUNNY     94  65  38 S18G25    29.82R HX  97
FALLS CITY     SUNNY     91  67  44 S18G26    29.86S HX  94
NEBRASKA CITY  SUNNY     91  69  47 S17G25    29.84S HX  95
PLATTSMOUTH    SUNNY     92  68  45 SE20G26   29.84R HX  97
$$

NEZ044-045-051>053-067-222300-
OMAHA AREA

CITY           SKY/WX    TMP DP  RH WIND       PRES   REMARKS
OMAHA EPPLEY   MOSUNNY   93  69  45 S25G33    29.81S HX  98
BLAIR          SUNNY     94  66  40 S18G26    29.81S HX  96
FREMONT        SUNNY     94  62  34 SE14G23   29.78S HX  95
MILLARD        SUNNY     96  68  40 S18G26    29.81S HX 100
OFFUTT AFB     SUNNY     92  69  46 SE18G26   29.81S HX  97
PLATTSMOUTH    SUNNY     92  68  45 SE20G26   29.84R HX  97
WAHOO          FAIR      96  61  31 S20G29    29.79S HX  96
$$



USA.gov is the U.S. government's official web portal to all federal, state and local government web resources and services.